Regional Weather Roundup
Issued by NWS

Home | Current Version | Previous Version | Graphics & Text | Print | Product List | Glossary On
Versions: 1 2 3 4 5 6 7 8 9 10 11 12 13 14 15 16 17 18 19 20 21 22 23 24 25 26 27 28 29 30 31 32 33 34 35 36 37 38 39 40 41 42 43 44 45 46 47 48 49 50
000
ASUS43 KOAX 011510
RWRNE

WEATHER ROUNDUP FOR NEBRASKA
NATIONAL WEATHER SERVICE OMAHA NE
1000 AM CDT WED JUL 01 2015

NOTES: SATELLITE DATA IS BEING USED TO AUGMENT CLOUD COVER ABOVE
       12000 FEET.
       "FAIR" INDICATES FEW OR NO CLOUDS BELOW 12,000 FEET WITH NO
       SIGNIFICANT WEATHER AND/OR OBSTRUCTIONS TO VISIBILITY.

  * THESE STATIONS DO NOT REPORT WEATHER SUCH AS RAIN...SNOW OR FOG.

NEZ001>004-019>022-054>056-011600-
NEBRASKA PANHANDLE

CITY           SKY/WX    TMP DP  RH WIND       PRES   REMARKS
SCOTTSBLUFF    SUNNY     77  60  55 NW8       30.05S
ALLIANCE       SUNNY     79  62  56 N13       30.02R
CHADRON        SUNNY     78  63  59 SW7       30.00R
KIMBALL          N/A    N/A N/A N/A MISG        N/A
SIDNEY         SUNNY     81  61  50 N12       30.06S
$$

NEZ057>060-069>072-079>082-011600-
SOUTHWEST NEBRASKA

CITY           SKY/WX    TMP DP  RH WIND       PRES   REMARKS
NORTH PLATTE   SUNNY     80  65  59 N10       29.93S
IMPERIAL       SUNNY     85  61  44 N13G18    29.96R
LEXINGTON      SUNNY     75  65  72 N9        29.90R
MCCOOK         SUNNY     79  65  62 N9        29.90R HAZE
OGALLALA       SUNNY     79  65  60 NW8       29.96R
$$

NEZ005>010-023>029-035>040-094-011600-
NORTH CENTRAL NEBRASKA

CITY           SKY/WX    TMP DP  RH WIND       PRES   REMARKS
VALENTINE      SUNNY     78  67  68 NW8       29.91S
AINSWORTH      SUNNY     73  65  77 CALM      29.92R
BROKEN BOW     SUNNY     74  65  73 N7        29.90S
O`NEILL        CLOUDY    71  67  86 S5        29.92S
ORD            CLOUDY    69  63  81 NE6       29.89S
THEDFORD       SUNNY     75  67  76 CALM      29.94S
$$

NEZ041-046>049-061>064-073>077-083>087-011600-
SOUTH CENTRAL NEBRASKA

CITY           SKY/WX    TMP DP  RH WIND       PRES   REMARKS
GRAND ISLAND   CLOUDY    70  64  81 NE13      29.89R
AURORA         CLOUDY    72  67  86 NE9       29.88R
HASTINGS       SUNNY     74  65  73 NE8       29.86R
HEBRON         SUNNY     79  65  62 E8        29.81R
HOLDREGE       SUNNY     72  64  76 N14       29.87R
KEARNEY *      MOSUNNY   73  64  73 N13       29.88R
YORK           CLOUDY    72  66  83 E12       29.86R
$$

NEZ011>018-030>034-042>045-011600-
NORTHEAST NEBRASKA

CITY           SKY/WX    TMP DP  RH WIND       PRES   REMARKS
NORFOLK        PTSUNNY   72  66  81 E8        29.89F HAZE
ALBION         MOSUNNY   73  65  75 SE13      29.88F
BLAIR          PTSUNNY   71  66  83 E13       29.88F
COLUMBUS *     CLOUDY    72  63  73 NE8       29.92R
FREMONT        SUNNY     73  66  78 E12G17    29.87F
WAYNE          CLOUDY    69  66  90 NE7       29.92R
$$

NEZ050>053-065>068-078-088>093-011600-
SOUTHEAST NEBRASKA

CITY           SKY/WX    TMP DP  RH WIND       PRES   REMARKS
LINCOLN        CLOUDY    74  68  81 E14       29.87R
OMAHA EPPLEY   PTSUNNY   74  67  78 NE8       29.89R
BEATRICE       MOSUNNY   77  68  72 E6        29.84S
FALLS CITY     MOSUNNY   75  69  81 NE8       29.84R
NEBRASKA CITY  PTSUNNY   73  68  86 E7        29.89R
PLATTSMOUTH    MOSUNNY   73  67  81 E6        29.89R
$$

NEZ044-045-051>053-067-011600-
OMAHA AREA

CITY           SKY/WX    TMP DP  RH WIND       PRES   REMARKS
OMAHA EPPLEY   PTSUNNY   74  67  78 NE8       29.89R
BLAIR          PTSUNNY   71  66  83 E13       29.88F
FREMONT        SUNNY     73  66  78 E12G17    29.87F
MILLARD        MOSUNNY   74  67  78 SE9       29.87F
OFFUTT AFB     MOSUNNY   74  68  80 VRB6      29.88R
PLATTSMOUTH    MOSUNNY   73  67  81 E6        29.89R
WAHOO          FAIR      73  68  83 E10       29.87S
$$


USA.gov is the U.S. government's official web portal to all federal, state and local government web resources and services.